Flag for Macedonia, Republic of Weather past 2 weeks in Skopje, Macedonia, Republic of

Now
50 °F

Passing clouds.


Feels Like: 47 °F
Forecast: 40 / 54 °F
Wind: 7 mph from Northeast

Location: Skopje-Petrovec

Current Time: Feb 28, 2015 at 10:43:54 PM

Latest Report: Feb 28, 2015 at 10:00 PM


Visibility: N/A

Pressure: 30.01 "Hg

Humidity: 71%

Dew point: 41 °F

Location of SkopjeLocation

Historic Weather in Skopje — Graph

°F

Skopje temperature yesterday

Maximum temperature yesterday: 54 °F (at 1:00 PM)
Minimum temperature yesterday: 45 °F (at 4:30 AM)
Average temperature yesterday: 47 °F

Past Weeks' High & Low Weather Summary

 TemperatureHumidityPressure
High61 °F (Feb 24, 2:30 PM)100% (Feb 23, 7:30 AM)30.63 "Hg (Feb 23, 7:30 AM)
Low16 °F (Feb 18, 6:00 AM)15% (Feb 20, 12:30 PM)29.59 "Hg (Feb 24, 4:00 PM)
Average40 °F70%30.07 "Hg
* Reported Feb 13 9:00 PM — Feb 28 9:30 PM, Skopje, Weather by CustomWeather, © 2015

Note: Actual official high and low records may vary slightly from our data, if they occured in-between our weather recording intervals... More about our weather records

Advertising

Skopje weather history for previous 24 hours

 ConditionsComfort  
Time TempWeatherWind HumidityBarometerVisibility
9:30 PM
Sat, Feb 28
48 °FPassing clouds.3 mph76%30.01 "HgN/A
8:30 PM52 °FPassing clouds.6 mph67%30.01 "HgN/A
8:00 PM50 °FPassing clouds.6 mph67%30.01 "HgN/A
7:30 PM50 °FPassing clouds.5 mph67%30.01 "HgN/A
7:00 PM50 °FPassing clouds.2 mph67%29.98 "HgN/A
6:30 PM50 °FPassing clouds.2 mph71%29.98 "HgN/A
6:00 PM52 °FPassing clouds.7 mph67%29.98 "HgN/A
5:30 PM55 °FPassing clouds.9 mph59%29.95 "HgN/A
5:00 PM55 °FScattered clouds.9 mph59%29.95 "HgN/A
4:30 PM57 °FScattered clouds.12 mph55%29.92 "HgN/A
4:00 PM57 °FScattered clouds.12 mph55%29.92 "HgN/A
3:30 PM59 °FScattered clouds.12 mph51%29.92 "HgN/A
3:00 PM59 °FScattered clouds.9 mph51%29.92 "HgN/A
2:30 PM61 °FPassing clouds.2 mph45%29.92 "HgN/A
2:00 PM59 °FPassing clouds.3 mph51%29.92 "HgN/A
1:30 PM59 °FPassing clouds.2 mph51%29.92 "HgN/A
1:00 PM59 °FPassing clouds.2 mph51%29.92 "HgN/A
12:30 PM57 °FPassing clouds.5 mph55%29.92 "HgN/A
11:30 AM57 °FPassing clouds.5 mph55%29.95 "HgN/A
11:00 AM55 °FSunny.3 mph63%29.95 "Hg10 mi
10:30 AM54 °FSunny.5 mph67%29.95 "Hg10 mi
10:00 AM52 °FSunny.3 mph72%29.95 "Hg10 mi
9:30 AM50 °FSunny.No wind76%29.95 "Hg10 mi
9:00 AM48 °FPassing clouds.No wind87%29.95 "Hg5 mi
8:30 AM46 °FFog.No wind93%29.95 "Hg3 mi
8:00 AM43 °FFog.No wind93%29.92 "Hg3 mi
7:30 AM39 °FFog.1 mph93%29.92 "Hg2 mi
7:00 AM37 °FSnow. Light fog.3 mph93%29.92 "Hg1 mi
6:30 AM36 °FFog.1 mph100%29.89 "Hg1 mi
6:00 AM36 °FPassing clouds.1 mph100%29.89 "Hg4 mi
5:30 AM36 °FPassing clouds.2 mph100%29.89 "Hg4 mi
5:00 AM37 °FFog.1 mph93%29.86 "Hg1 mi
4:30 AM37 °FFog.1 mph100%29.86 "Hg1 mi
4:00 AM39 °FFog.1 mph93%29.86 "Hg2 mi
3:00 AM41 °FFog.1 mph93%29.83 "Hg2 mi
2:00 AM41 °FFog.2 mph100%29.83 "Hg2 mi
1:30 AM43 °FFog.1 mph93%29.83 "Hg2 mi
1:00 AM43 °FFog.No wind93%29.83 "Hg2 mi
12:30 AM43 °FFog.No wind100%29.83 "Hg1 mi
12:00 AM45 °FFog.No wind93%29.83 "Hg2 mi
11:30 PM
Fri, Feb 27
45 °FFog.2 mph93%29.83 "Hg3 mi
11:00 PM46 °FFog.1 mph87%29.83 "Hg3 mi
10:30 PM46 °FMostly cloudy.2 mph93%29.83 "Hg4 mi
10:00 PM46 °FFog.3 mph93%29.83 "Hg3 mi
Weather by CustomWeather, © 2015

See weather overviewHow to use our weather pages